Weather Roundup
Issued by NWS Springfield, MO

Home | Current Version | Previous Version | Text Only | Print | Product List | Glossary On
Versions: 1 2 3 4 5 6 7 8 9 10 11 12 13 14 15 16 17 18 19 20 21 22 23 24 25 26 27 28 29 30 31 32 33 34 35 36 37 38 39 40 41 42 43 44 45 46 47 48 49 50
000
NZUS99 KSGF 190707
HRRSGF

HOURLY WEATHER
NATIONAL WEATHER SERVICE SPRINGFIELD MO
200 AM CDT THU OCT 19 2017

......SGF CWA......

CITY           SKY/WX    TMP DP  RH WIND       PRES   REMARKS
SPRINGFIELD    CLEAR     54  45  71 CALM      30.13R
JOPLIN         CLOUDY    54  48  80 S6        30.11S
WEST PLAINS    CLEAR     57  48  72 S6        30.16S
ROLLA          CLEAR     53  47  79 S10       30.14R
OSAGE BEACH    CLEAR     50  47  89 CALM      30.14R
BRANSON          N/A     54  46  76 CALM      30.14R

......SURROUNDING SGF CWA......

CITY           SKY/WX    TMP DP  RH WIND       PRES   REMARKS
CHANUTE        CLEAR     53  47  79 SE7       30.09S
PARSONS        CLEAR     50  47  89 SE3       30.10S
COFFEYVILLE    CLEAR     51  48  89 SE5       30.09R
EMPORIA        CLEAR     55  48  77 S7        30.06R
GROVE OK       CLEAR     48  48 100 CALM      30.13R
ROGERS AR      CLEAR     51  48  89 NE3       30.14R
SILOAM SPRINGS CLEAR     49  44  83 CALM      30.13R
HARRISON AR    CLEAR     59  48  67 S7        30.13S
NEAR YELLVILLE CLEAR     51  48  89 NE3       30.14R

......KANSAS AND MISSOURI......

CITY           SKY/WX    TMP DP  RH WIND       PRES   REMARKS
KANSAS CTY INT CLEAR     55  49  80 S3        30.07R
DOWNTOWN KC    CLEAR     62  50  64 CALM      30.06R
COLUMBIA       CLEAR     55  46  71 S7        30.11R
SEDALIA        CLEAR     60  50  69 SW10      30.10S
ST JOSEPH      FOG       46  46 100 CALM      30.05S VSB 1/2
ST LOUIS       CLEAR     58  49  72 S5        30.13S
SPIRIT OF STL  CLEAR     50  48  93 CALM      30.12R
KIRKSVILLE     CLEAR     50  48  93 SW3       30.08R
WICHITA        PTCLDY    53  49  86 S9        30.05F
TOPEKA         CLEAR     53  52  96 CALM      30.05R
OLATHE         CLEAR     54  48  80 S6        30.07R

......TENNESSEE......

CITY           SKY/WX    TMP DP  RH WIND       PRES   REMARKS
MEMPHIS        CLEAR     55  46  71 S5        30.19S
NASHVILLE      CLEAR     51  44  77 S3        30.24R

......ARKANSAS.......

CITY           SKY/WX    TMP DP  RH WIND       PRES   REMARKS
FAYETTEVILLE   CLEAR     50  47  89 CALM      30.13R
FT SMITH       CLOUDY    57  52  83 NE3       30.13R
LITTLE ROCK    CLEAR     52  50  93 CALM      30.17R

......OKLAHOMA.......

CITY           SKY/WX    TMP DP  RH WIND       PRES   REMARKS
TULSA          PTCLDY    60  48  64 SE3       30.08S
PONCA CITY     CLEAR     61  46  57 S6        30.07R
MCALESTER      CLOUDY    63  47  55 S7        30.11S
OKLAHOMA CITY  CLOUDY    54  45  71 S9        30.08R

......IOWA............

CITY           SKY/WX    TMP DP  RH WIND       PRES   REMARKS
DES MOINES     PTCLDY    53  49  86 CALM      30.04R
QUAD CITIES    CLEAR     57  44  62 W3        30.04R

......ILLINOIS........

CITY           SKY/WX    TMP DP  RH WIND       PRES   REMARKS
QUINCY         CLEAR     54  45  71 S8        30.08S
CHICAGO        PTCLDY    59  45  59 SW12      30.03R




USA.gov is the U.S. government's official web portal to all federal, state and local government web resources and services.